Miscellaneous Local Product
Issued by NWS Hastings, NE

Home | Current Version | Previous Version | Text Only | Print | Product List | Glossary Off
Versions: 1 2 3 4 5 6 7 8 9 10 11 12 13 14 15 16 17 18 19 20 21 22 23 24 25 26 27 28 29 30 31 32 33 34 35 36 37 38 39 40 41 42 43 44 45 46 47 48 49 50

868
AXUS43 KGID 271702
MISGRI

GID CWA HOURLY WEATHER ROUNDUP
NATIONAL WEATHER SERVICE HASTINGS NE
1200 PM CDT SAT MAY 27 2017

NOTE: "FAIR" INDICATES FEW OR NO CLOUDS BELOW 12,000 FEET WITH NO
SIGNIFICANT WEATHER AND/OR OBSTRUCTIONS TO VISIBILITY.

...SOUTH CENTRAL NEBRASKA...

CITY           SKY/WX    TMP DP  RH WIND       PRES   REMARKS
GRAND ISLAND   SUNNY     70  50  49 NE17      29.92S
HASTINGS       SUNNY     66  53  63 NE10      29.92R
KEARNEY        SUNNY     66  48  52 N10G17    29.94S
ORD            PTSUNNY   67  51  56 NE9       29.95R
YORK           MOSUNNY   68  54  60 E12       29.89F
AURORA         SUNNY     69  49  48 NE14      29.91R
LEXINGTON      SUNNY     67  55  64 NE10      29.96R
HOLDREGE       SUNNY     65  52  61 N12       29.94R
HEBRON         MOSUNNY   66  58  73 NE14G20   29.87S

...NEBRASKA PANHANDLE...

CITY           SKY/WX    TMP DP  RH WIND       PRES   REMARKS
CHADRON        SUNNY     62  44  51 N12       30.05S
ALLIANCE       CLOUDY    56  45  66 NW13      30.05R
SCOTTSBLUFF    CLOUDY    57  42  57 NW12      30.08R
SIDNEY         CLOUDY    54  46  74 N16       30.08R

...WESTERN AND NORTH CENTRAL NEBRASKA...

CITY           SKY/WX    TMP DP  RH WIND       PRES   REMARKS
VALENTINE      CLOUDY    56  49  77 CALM      30.02S
AINSWORTH      RAIN      53  50  88 N8        30.03R
ONEILL         CLOUDY    58  50  74 N5        30.00R
BROKEN BOW     CLOUDY    64  51  62 N12       29.98R
IMPERIAL       CLOUDY    59  51  75 N14       30.02R
NORTH PLATTE   LGT RAIN  59  54  83 N13       30.00R
MCCOOK         CLOUDY    67  53  61 N15       29.95R

...EASTERN NEBRASKA...

CITY           SKY/WX    TMP DP  RH WIND       PRES   REMARKS
NORFOLK        CLOUDY    66  50  56 NE12      29.92S
SO SIOUX CITY  CLOUDY    67  52  58 NE10      29.94S
TEKAMAH        CLOUDY    70  51  51 NE14G21   29.90F
ALBION         SUNNY     68  50  51 NE9       29.94F
OMAHA EPPLEY   PTSUNNY   62  55  77 NE15G23   29.88S
OFFUTT AFB     PTSUNNY   62  56  81 NE12      29.88R
MILLARD        CLOUDY    65  56  73 NE12      29.88R
LINCOLN        CLOUDY    68  55  63 E9        29.90R
NEBRASKA CITY  CLOUDY    60  60 100 E14       29.87F
BEATRICE       CLOUDY    65  58  77 NE8       29.86F
FALLS CITY     LGT RAIN  61  60  97 SE8G22    29.81F

...NORTHERN KANSAS...

CITY           SKY/WX    TMP DP  RH WIND       PRES   REMARKS
GOODLAND       CLOUDY    60  53  77 N17G25    30.01R
HILL CITY      PTSUNNY   69  59  70 NW9       29.92R
NORTON         PTSUNNY   68  55  64 N7        29.93R
PHILLIPSBURG   CLOUDY    68  57  68 NW6       29.91R
SMITH CENTER   PTSUNNY   64  57  77 N8        29.90R
HAYS           CLOUDY    68  59  73 NW6       29.90R
RUSSELL        CLOUDY    67  59  75 NW6       29.88R
CONCORDIA      MOSUNNY   67  61  81 VRB6      29.85R
SALINA         LGT RAIN  70  60  70 E5        29.85R
TOPEKA         CLOUDY    64  62  93 E16G23    29.75F



USA.gov is the U.S. government's official web portal to all federal, state and local government web resources and services.